Regional Weather Roundup
Issued by NWS

Home | Current Version | Previous Version | Text Only | Print | Product List | Glossary Off
Versions: 1 2 3 4 5 6 7 8 9 10 11 12 13 14 15 16 17 18 19 20 21 22 23 24 25 26 27 28 29 30 31 32 33 34 35 36 37 38 39 40 41 42 43 44 45 46 47 48 49 50

000
ASUS43 KLOT 290400
RWRIL

ILLINOIS REGIONAL WEATHER ROUNDUP
NATIONAL WEATHER SERVICE CHICAGO/ROMEOVILLE IL
1100 PM CDT MON JUL 28 2014

NOTE: "FAIR" INDICATES FEW OR NO CLOUDS BELOW 12,000 FEET WITH NO
SIGNIFICANT WEATHER AND/OR OBSTRUCTIONS TO VISIBILITY.

* THESE STATIONS ARE NOT UNDER NWS QUALITY CONTROL. THEY ALSO MAY NOT
  REPORT WEATHER SUCH AS PRECIPITATION OR FOG.

ILZ001-002-007-009-015-016-024-290500-
NORTHWEST ILLINOIS

CITY           SKY/WX    TMP DP  RH WIND       PRES   REMARKS
MOLINE         CLEAR     57  53  86 CALM      30.11F
STERLING*      CLEAR     59  52  77 NW7       30.11S
$$

ILZ003-004-008-010-011-017-018-290500-
NORTH CENTRAL ILLINOIS

CITY           SKY/WX    TMP DP  RH WIND       PRES   REMARKS
ROCKFORD       PTCLDY    61  53  75 W7        30.10F
FREEPORT*      CLEAR     56  52  84 W5        30.11F
$$

ILZ005-006-012>014-019>023-290500-
NORTHEAST ILLINOIS

CITY           SKY/WX    TMP DP  RH WIND       PRES   REMARKS
CHICAGO-OHARE  CLOUDY    62  49  62 CALM      30.05F
CHICAGO-MIDWAY CLOUDY    65  50  58 S6        30.06F
AURORA         CLEAR     56  52  86 W3        30.08F
LANSING*       CLOUDY    60  53  79 SW3       30.07F
WAUKEGAN       CLOUDY    59  51  75 E5        30.05F
DUPAGE AIRPORT PTCLDY    61  52  72 W6        30.06F
WHEELING       CLOUDY    62  51  67 CALM      30.07F
NORTHERLY ISL    N/A     62  51  67 SE3         N/A
$$

LMZ740>746-290500-
SOUTHERN LAKE MICHIGAN

STATION/POSITION SKY/WX   TEMP    WIND        PRES    VSBY  WAVE
                          AIR SEA DIR/SP/G                  HT/PER
                          (F)     (DEG/KT/KT) (MB)    (MI)  (FT/S)
SOUTHERN BUOY              59 60  360/  2/  4 1018.0R         3/ 6
WAUKEGAN HARBOR            61     210/  5/  7   N/A
HARRISON CRIB              62     180/  3/  4   N/A
BURNHAM HARBOR             62     170/  3       N/A
CALUMET HARBOR             62      CALM  /  1 1017.0F
MICHIGAN CITY              64     350/ 12/ 13   N/A
MICHIGAN CITY 6N           65 67  350/  6/ 10   N/A           4/ 7
ST. JOSEPH                 62 66  340/  4/  8   N/A           4/ 6
$$

ILZ025>027-034>036-040-047-049-050-058-095>099-290500-
WEST-CENTRAL ILLINOIS

CITY           SKY/WX    TMP DP  RH WIND       PRES   REMARKS
QUINCY         PTCLDY    61  57  87 CALM      30.14F
GALESBURG*     CLEAR     55  53  94 CALM      30.12F
MACOMB*        CLEAR     55  54  97 CALM      30.15S
$$

ILZ028>032-037-038-041>044-048-051>054-059>061-290500-
CENTRAL ILLINOIS

CITY           SKY/WX    TMP DP  RH WIND       PRES   REMARKS
PONTIAC        CLEAR     57  55  94 CALM      30.09F
DECATUR        CLEAR     59  52  77 N7        30.10F
PEORIA         CLEAR     61  54  77 CALM      30.11F
SPRINGFIELD    CLEAR     58  55  90 NW3       30.13R
TAYLORVILLE    NOT AVBL
$$

ILZ033-039-045-046-055>057-062-063-290500-
EAST-CENTRAL ILLINOIS

CITY           SKY/WX    TMP DP  RH WIND       PRES   REMARKS
CHAMPAIGN      CLEAR     56  52  86 NW5       30.09F
MATTOON          N/A     56  50  80 CALM      30.09S
$$

ILZ079-100>102-290500-
SOUTHWEST ILLINOIS

CITY           SKY/WX    TMP DP  RH WIND       PRES   REMARKS
BELLEVILLE     CLEAR     61  55  80 NW2       30.11S
CAHOKIA*       CLEAR     62  55  77 N5        30.12S
SPARTA*        CLEAR     63  54  72 CALM      30.12S
$$

ILZ064>066-069>071-074>076-080>082-084>086-088>090-092>094-290500-
SOUTH-CENTRAL ILLINOIS

CITY           SKY/WX    TMP DP  RH WIND       PRES   REMARKS
CARBONDALE     CLEAR     64  55  72 CALM      30.10R
MT. VERNON     CLEAR     57  52  82 CALM      30.11S
SALEM*         CLEAR    N/A N/A N/A N3        30.11S
$$

ILZ067-068-072-073-078-083-087-091-290500-
SOUTHEAST ILLINOIS

CITY           SKY/WX    TMP DP  RH WIND       PRES   REMARKS
LAWRENCEVILLE  CLEAR     59  51  75 N5        30.09S
HARRISBURG*    CLEAR     64  55  73 N3        30.10S
ROBINSON*      CLEAR     56  53  88 CALM      30.09F
CARMI*         CLEAR     63  57  82 N6        30.09R
$$

ABBREVIATIONS USED IN REMARKS
   TC - TEMPERATURE IN CELSIUS
  WCI - WIND CHILL INDEX
   HX - HEAT INDEX
  VSB - VISIBILITY
$$




USA.gov is the U.S. government's official web portal to all federal, state and local government web resources and services.